Location: *
(45.9500°N, 9.0833°E)
Time: 22:45:30
(UTC+00:00)

Tiros 1 despin weight - Pass Details

Date: 22 June 2021
Orbit: 593 x 642 km, 48.2° (Epoch: 02 August)

Event Time Altitude Azimuth Distance (km) Brightness Sun altitude
Rises 09:35:57 0° 288° (WNW) 2,829 ? 58.4°
Reaches altitude 10° 09:38:18 10° 283° (WNW) 1,928 ? 58.8°
Maximum altitude 09:42:30 45° 210° (SSW) 815 ? 59.3°
Drops below altitude 10° 09:46:45 10° 138° (SE) 1,938 ? 59.9°
Sets 09:49:06 0° 132° (SE) 2,846 ? 60.2°
